OpenBCM V1.13 (Linux)

Packet Radio Mailbox

DB0FHN

[JN59NK Nuernberg]

 Login: GUEST





  
I0OJJ  > KEPS     20.02.25 06:13l 326 Lines 15583 Bytes #999 (0) @ AMSAT
BID : ORB25051.1
Read: DJ6UX GUEST
Subj: 2Line Orbital Elements 25051.AMSAT
Path: DB0FHN<DB0FFL<OE5XBL<OE6XPE<DB0ERF<DK0WUE<PD0LPM<PI8ZTM<I0OJJ
Sent: 250220/0345z @:I0OJJ.ITA.EU [Rome] obcm1.08-6-g5b69
From: I0OJJ @ I0OJJ.ITA.EU (Gustavo)
To:   KEPS @ AMSAT
X-Info: This message was generated automatically


QST de W1STR

AMSAT Orbital Elements for Amateur Satellites in TLE Format
From Orbital Analysis Office
New England Sci-Tech STEM Education Center
Natick, MA February 20, 2025
To all radio amateurs


These element sets describe the orbits of various satellites 
in use by the amateur radio community. For details see:
www.amsat.org/keplerian-elements-formats/

A daily update of element sets is available at:
www.amsat.org/tle/daily-bulletin.txt
or without bulletin text:
www.amsat.org/tle/dailytle.txt


AO-07
1 07530U 74089B   25050.61641105 -.00000026  00000-0  13121-3 0  9999
2 07530 101.9943  53.7075 0012054 333.2297 144.8408 12.53686231300045
UO-11
1 14781U 84021B   25050.46820075  .00004271  00000-0  46259-3 0  9993
2 14781  97.7408  19.1522 0007546 354.2092   5.9037 14.88728477185256
AO-27
1 22825U 93061C   25050.42431442  .00000323  00000-0  14070-3 0  9997
2 22825  98.7531 111.3576 0009440  77.9777 282.2463 14.30732106637964
FO-29
1 24278U 96046B   25050.73507180  .00000037  00000-0  76718-4 0  9994
2 24278  98.5866 319.0272 0348887 267.1478  88.9691 13.53237827408165
NOAA-15
1 25338U 98030A   25050.72297740  .00000391  00000-0  17878-3 0  9998
2 25338  98.5480  78.4378 0009532 325.8434  34.2133 14.26887396392736
GO-32
1 25397U 98043D   25050.54021451  .00000272  00000-0  13800-3 0  9990
2 25397  98.9584  27.4358 0001846 131.7127 228.4209 14.24256277382629
ISS
1 25544U 98067A   25050.83424147  .00018626  00000-0  32986-3 0  9999
2 25544  51.6359 168.2538 0004483 338.7930  21.2872 15.50312718496965
NO-44
1 26931U 01043C   25050.40931927  .00000585  00000-0  25051-3 0  9990
2 26931  67.0504  52.6671 0005961 264.6215  95.4207 14.31623854221334
SO-50
1 27607U 02058C   25050.58085231  .00003363  00000-0  44455-3 0  9991
2 27607  64.5543 179.9324 0043197   1.6189 358.5048 14.80981896192936
CO-55
1 27844U 03031E   25050.56976655  .00000843  00000-0  38738-3 0  9990
2 27844  98.6794  60.2562 0010387 141.8407 218.3509 14.23827615122984
CO-57
1 27848U 03031J   25050.74875454  .00000714  00000-0  33510-3 0  9999
2 27848  98.6823  60.5198 0010001 157.1840 202.9785 14.23187238122797
RS-22
1 27939U 03042A   25050.77533544  .00002859  00000-0  46559-3 0  9995
2 27939  98.3149 217.6735 0011557   2.7580 121.6985 14.71789949144671
NOAA-18
1 28654U 05018A   25050.76800532  .00000385  00000-0  22787-3 0  9997
2 28654  98.8503 131.4576 0015126  82.8331 277.4560 14.13519656 18233
CO-58
1 28895U 05043F   25050.36784361  .00005022  00000-0  84055-3 0  9998
2 28895  98.2297 193.5096 0014038 297.4863  62.4915 14.70200642 30746
CO-65
1 32785U 08021C   25050.53029482  .00014014  00000-0  10628-2 0  9990
2 32785  97.7720  21.1112 0009360 219.7220 140.3320 15.02316029912619
AAUSAT2
1 32788U 08021F   25050.38875351  .00156852  00000-0  28484-2 0  9996
2 32788  97.6068  42.3308 0006210  74.2056 285.9879 15.48972102916125
CO-66
1 32791U 08021J   25050.39845885  .00027206  00000-0  14914-2 0  9993
2 32791  97.7198  28.3838 0005077 152.2894 207.8608 15.14145612913797
RS-30
1 32953U 08025A   25050.78916727  .00000030  00000-0  14898-3 0  9992
2 32953  82.5024 295.4823 0018789 286.8076  73.0943 12.43159062759884
NOAA-19
1 33591U 09005A   25050.75651504  .00000337  00000-0  20382-3 0  9991
2 33591  99.0125 114.7843 0012962 316.5558  43.4592 14.13288980826591
SRMSAT
1 37841U 11058D   25050.44217971  .00000693  00000-0  23343-3 0  9991
2 37841  19.9718 101.0067 0011568 294.1895  94.1849 14.11364903689532
ZACUBE-1
1 39417U 13066B   25050.41309787  .00013711  00000-0  12410-2 0  9994
2 39417  97.7669   8.2389 0047705  61.2993 299.3010 14.94636576608440
Delfi-N3xt
1 39428U 13066N   25050.35764621  .00020816  00000-0  22365-2 0  9995
2 39428  97.8366 329.4297 0089512   4.3595 355.8379 14.85631898602690
GOMX-1
1 39430U 13066Q   25050.55913430  .00004593  00000-0  72676-3 0  9999
2 39430  97.6989 275.9237 0133942 183.8302 176.1891 14.66844876599270
LO-74
1 39440U 13066AA  25050.41797856  .00008689  00000-0  91205-3 0  9996
2 39440  97.8388 355.9413 0063900 181.5050 178.5985 14.88220460605046
AO-73
1 39444U 13066AE  25050.42716293  .00019785  00000-0  15879-2 0  9998
2 39444  97.7507  12.3193 0043212  39.0983 321.3349 14.99362989607068
DTUSAT-2
1 40030U 14033W   25050.47636884  .00016803  00000-0  11695-2 0  9998
2 40030  98.0434  17.2600 0012067  76.3647 283.8921 15.05490873579817
EO-80
1 40032U 14033Y   25050.70209485  .00015655  00000-0  10875-2 0  9992
2 40032  98.0330  17.2984 0009815  26.7503 333.4227 15.05598398580348
XW-2C
1 40906U 15049H   25047.62605869  .06460715  25777-5  82494-3 0  9990
2 40906  97.4284  83.7622 0006300 238.5188 121.5494 16.35922890522636
LILACSAT-2
1 40908U 15049K   25050.72841195  .00019117  00000-0  56308-3 0  9993
2 40908  97.5168  68.6487 0009880 182.0962 178.0241 15.35043100521352
IO-86
1 40931U 15052B   25038.81889873  .00001817  00000-0  15548-3 0  9993
2 40931   6.0001 108.1159 0012838 187.7041 172.2889 14.78568669506492
Horyu-4
1 41340U 16012D   25050.55922108  .00034241  00000-0  11426-2 0  9996
2 41340  30.9991 148.2475 0006199   8.5594 351.5154 15.29844887495886
Lapan A3
1 41603U 16040E   25050.77168537  .00007050  00000-0  25588-3 0  9994
2 41603  97.1404  59.7633 0009581 307.5060  52.5309 15.28569815481005
CAS-2T
1 41847U 16066G   25050.45290240  .00004403  00000-0  63387-3 0  9992
2 41847  98.4308 125.8616 0348642 151.4118 210.6689 14.42965770435138
CAS-4B
1 42759U 17034B   25050.87765367  .00051935  00000-0  96407-3 0  9995
2 42759  43.0100 248.3589 0018071 246.7530 113.1427 15.47979196425514
CAS-4A
1 42761U 17034D   25050.84143201  .00052885  00000-0  96362-3 0  9997
2 42761  43.0136 246.4991 0019381 252.0952 107.7794 15.48476015425525
TechnoSat
1 42829U 17042E   25050.46096097  .00008201  00000-0  65613-3 0  9997
2 42829  97.3894 224.4931 0011837 302.8745  57.1340 15.00380989414205
AO-91
1 43017U 17073E   25050.57790663  .00015685  00000-0  84570-3 0  9990
2 43017  97.5483 284.2093 0181273 180.3579 179.7547 15.01771041392681
S-Net D
1 43186U 18014G   25050.70132413  .00009823  00000-0  60960-3 0  9995
2 43186  97.5717 314.8067 0007741 236.5970 123.4519 15.09885965385782
S-Net B
1 43187U 18014H   25050.63914813  .00009840  00000-0  61083-3 0  9996
2 43187  97.5728 314.7113 0008507 231.4480 128.5988 15.09870689385779
S-Net A
1 43188U 18014J   25050.63578327  .00009738  00000-0  60427-3 0  9990
2 43188  97.5731 314.8441 0008418 232.5098 127.5366 15.09888833385776
S-Net C
1 43189U 18014K   25050.50875061  .00011461  00000-0  71053-3 0  9995
2 43189  97.5751 314.7140 0010036 224.9543 135.0875 15.09866890384309
Ten-Koh
1 43677U 18084G   25050.53858970  .00007194  00000-0  59110-3 0  9995
2 43677  98.0860 218.4263 0010212 273.3621  86.6433 14.99453049343745
PO-101
1 43678U 18084H   25050.76959734  .00004412  00000-0  38512-3 0  9994
2 43678  98.0950 222.8128 0007412 297.3061  62.7405 14.97356328343943
QO-100
1 43700U 18090A   25050.54775208  .00000155  00000-0  00000-0 0  9993
2 43700   0.0217 234.4514 0001284 127.0584  11.2132  1.00273678 22830
MinXSS-2
1 43758U 18099A   25050.17431626  .00023565  00000-0  10805-2 0  9993
2 43758  97.5175 116.1667 0013378 179.9813 180.1425 15.20370767340164
AO-95
1 43770U 18099N   25050.14194101  .00014911  00000-0  82521-3 0  9998
2 43770  97.5088 109.5936 0010602 230.7657 129.2634 15.13897233339826
RANGE-A
1 43773U 18099R   25050.40967656  .00011399  00000-0  75725-3 0  9998
2 43773  97.4666 102.0294 0011234 203.7254 156.3458 15.07309152339613
MOVE-II
1 43780U 18099Y   25050.71758772  .00086070  00000-0  19515-2 0  9999
2 43780  97.4818 121.0661 0004301 187.5308 172.5876 15.42753104340700
SNUSat 2
1 43782U 18099AA  25050.12310715  .00012477  00000-0  73251-3 0  9995
2 43782  97.4772 107.1827 0013095 170.4819 189.6662 15.11789731339798
SnugLite
1 43784U 18099AC  25050.72351783  .00016413  00000-0  90067-3 0  9991
2 43784  97.4585 107.1496 0004180 161.2591 198.8795 15.14217567339991
ITASat 1
1 43786U 18099AE  25050.61558602  .00012598  00000-0  76525-3 0  9993
2 43786  97.4745 107.4685 0014238 221.4196 138.5955 15.10540218339840
EAGLET 1
1 43790U 18099AJ  25050.62707506  .00008819  00000-0  58511-3 0  9994
2 43790  97.4940 107.7444 0012082 200.9582 159.1153 15.07419307339494
ESEO
1 43792U 18099AL  25050.50109274  .00004016  00000-0  31184-3 0  9993
2 43792  97.4589 102.2975 0010942 168.5390 191.6086 15.01835177339298
CSIM
1 43793U 18099AM  25050.76849883  .00089748  00000-0  20220-2 0  9992
2 43793  97.4997 123.1092 0007130 165.6035 194.5416 15.42912335340550
JO-97
1 43803U 18099AX  25050.11729770  .00019190  00000-0  97837-3 0  9998
2 43803  97.4830 110.3821 0008500 164.7830 195.3660 15.16768714340002
Suomi 100
1 43804U 18099AY  25050.56886251  .00018615  00000-0  99751-3 0  9994
2 43804  97.4901 110.3884 0013735 166.1139 194.0474 15.14962981340026
ISAT
1 43879U 18111D   25050.47160743  .00035759  00000-0  14975-2 0  9994
2 43879  97.6029 322.8900 0008362 211.9475 148.1255 15.23425609336890
UWE-4
1 43880U 18111E   25050.27178446  .00030546  00000-0  13855-2 0  9998
2 43880  97.5966 321.8335 0011416 229.8582 130.1654 15.20710631336830
Sparrow
1 43881U 18111F   25050.26860202  .00038269  00000-0  15608-2 0  9994
2 43881  97.6151 325.1791 0005275 264.0928  95.9707 15.24320673336948
Prox-1
1 44339U 19036A   25050.73064118  .00019488  00000-0  27120-2 0  9998
2 44339  23.9982  61.5417 0007419 254.2522 105.7156 14.76244666301831
SONATE
1 44400U 19038Q   25050.59614053  .00084814  00000-0  10564-2 0  9991
2 44400  97.7102  65.8639 0006652 300.2617  59.7979 15.59619874312271
